Theta_e
326 330 333 344 348 350 356 356 361 364 364 358 358 365 364 364 365 365 366 368 364 360 361 359 351 351 357 357 356 357 355 354 356 353 354 355 349 350 354 353 353 350 349 349 349 349 350 350 349 350 350 351 352 351 350 351 352 352 352 351 349 348 348 350 351 351 351 351 352 352 352 353 353 353 353 353 351 350 351 352 351 349 350 352 353 352 353 354 353 353 353 353 352 352 351 350 350
329 339 344 349 349 356 363 360 362 362 360 356 360 368 366 366 365 366 368 367 362 359 361 355 350 351 352 353 352 357 357 354 355 356 355 352 350 353 354 353 351 349 350 349 349 348 349 350 350 351 352 352 352 352 351 351 351 352 353 351 349 347 347 347 350 351 350 351 351 352 352 352 353 353 352 354 353 352 352 352 351 350 351 353 352 352 352 353 353 354 354 353 353 352 351 351 350
335 346 349 352 354 358 363 363 362 357 357 356 360 369 369 368 365 368 369 366 364 361 357 352 352 351 349 355 355 357 357 352 351 353 353 352 352 352 354 352 348 349 350 349 349 349 350 351 351 352 352 353 352 352 351 351 352 353 353 351 349 347 349 349 349 351 351 351 351 351 351 351 353 352 351 353 354 353 354 353 351 351 352 352 351 351 352 354 354 353 354 354 353 352 351 350 350
341 349 351 354 361 361 364 367 364 358 356 354 355 366 372 365 359 366 369 367 364 359 354 351 352 349 351 356 353 355 356 352 352 352 353 353 351 353 354 350 347 348 349 349 349 349 350 351 352 352 352 352 351 351 351 351 352 353 353 351 349 347 350 351 350 351 351 351 351 351 351 351 351 351 352 353 354 353 353 353 353 353 353 352 351 351 353 354 353 352 353 353 351 351 350 349 349
345 351 352 354 364 365 366 368 366 361 358 359 358 365 369 359 357 364 367 367 362 359 353 349 351 349 350 352 350 355 355 352 352 352 352 351 352 353 353 350 349 348 347 348 349 349 349 349 350 351 351 350 350 350 350 352 352 353 353 351 350 348 349 350 351 351 352 351 350 351 351 351 350 349 353 354 353 351 351 353 353 353 353 352 352 352 353 352 352 352 352 352 351 350 350 349 348
346 352 354 353 360 362 365 364 361 363 365 371 368 367 365 357 360 362 362 366 364 360 352 347 348 347 349 347 348 353 352 352 352 352 351 351 352 353 352 352 351 348 347 347 347 346 346 348 349 349 349 348 349 350 350 351 352 352 351 350 349 350 349 348 349 351 352 351 351 351 350 350 350 351 354 354 353 351 351 353 353 353 353 352 352 352 352 351 351 351 351 351 351 350 350 349 348
348 356 360 359 361 362 366 361 360 367 368 370 369 366 361 358 362 360 360 363 363 357 347 345 343 345 349 347 349 351 349 352 352 351 351 352 353 352 352 351 349 349 348 347 346 345 346 348 347 347 348 349 349 349 350 351 353 352 350 349 350 351 351 349 349 351 352 351 351 350 350 349 350 352 353 353 353 353 353 353 353 352 352 351 351 352 352 351 351 351 351 350 349 349 348 348 348
351 359 363 363 367 365 366 363 364 370 367 364 365 365 360 363 364 361 363 359 359 354 345 343 342 349 350 347 353 352 350 352 352 352 352 353 353 352 353 351 350 350 349 346 345 344 345 345 344 345 347 347 348 349 350 352 352 350 350 350 350 352 353 351 349 350 352 352 351 350 350 350 351 352 353 353 354 354 354 354 353 353 351 351 352 352 352 353 352 352 352 350 349 348 347 347 349
352 358 364 363 367 364 362 364 366 369 368 363 363 364 364 368 367 364 364 360 358 353 347 343 344 351 351 351 355 352 351 352 352 353 352 352 352 353 353 352 352 351 349 346 345 344 344 345 345 345 346 346 348 350 351 351 351 350 351 351 350 351 352 352 349 350 352 353 352 351 351 351 352 352 353 353 354 354 354 354 354 353 352 352 353 352 351 351 350 351 351 348 346 346 345 345 348
357 359 364 364 365 360 358 362 366 367 364 364 361 362 367 370 369 367 364 362 358 351 346 344 346 351 351 354 355 352 352 353 353 353 352 351 352 353 353 353 353 351 349 347 346 346 346 346 346 346 347 348 350 351 351 351 352 351 351 352 351 350 351 351 350 350 351 353 353 351 351 352 352 352 353 353 353 353 353 354 354 354 353 353 353 352 351 349 349 349 348 345 343 343 343 344 346
365 359 361 365 362 356 357 360 365 367 363 363 361 361 369 370 370 368 362 361 356 348 345 347 350 350 351 353 354 353 351 352 352 352 352 352 353 353 353 354 353 350 348 346 347 347 347 346 347 348 349 350 351 351 352 352 352 351 351 351 350 350 351 351 351 351 352 352 352 352 352 352 352 352 353 353 353 352 353 353 353 353 353 353 352 351 350 348 347 347 346 344 343 343 342 343 345
368 361 363 364 360 359 362 361 364 368 364 363 363 365 368 369 368 365 363 361 352 348 347 349 351 350 352 352 353 353 350 350 351 353 353 353 353 353 353 353 353 351 347 346 347 346 345 346 349 351 351 352 352 352 351 351 351 351 350 350 350 350 351 351 351 351 352 352 352 352 353 352 352 352 352 353 352 352 352 352 352 352 352 352 351 351 348 344 344 344 344 343 343 343 342 343 345
367 363 366 365 363 367 367 364 365 367 366 365 365 368 364 365 368 364 364 360 353 352 349 349 348 348 352 350 350 351 350 350 350 352 353 353 352 353 353 352 352 352 349 346 346 346 346 349 351 352 352 353 352 352 351 351 351 350 350 350 350 351 350 350 349 349 351 352 352 352 352 352 352 351 351 352 352 351 352 351 350 350 351 351 350 349 344 341 342 342 342 342 342 342 342 342 344
364 363 365 366 368 371 367 364 365 363 364 365 364 367 363 362 368 364 364 363 360 355 348 347 346 348 351 349 350 350 350 350 350 351 352 352 352 352 353 353 353 353 351 349 348 348 350 351 351 352 352 351 351 352 352 352 351 350 351 351 351 351 351 350 349 350 351 352 352 351 351 352 351 351 350 350 350 350 350 350 349 348 350 350 349 346 342 342 344 342 341 340 341 341 341 341 344
364 364 364 367 368 368 367 366 364 362 362 363 363 365 361 362 368 365 364 364 360 351 347 347 345 349 350 350 351 350 350 350 350 351 352 352 352 353 352 352 352 352 353 352 352 352 353 352 351 351 350 350 350 351 352 352 350 351 351 352 352 352 351 351 350 350 351 351 351 351 351 351 351 351 351 350 349 349 350 351 349 348 349 350 348 344 342 343 342 340 338 338 338 339 338 339 344
364 365 365 366 365 363 366 368 365 363 363 364 364 365 365 366 367 365 364 359 355 349 349 347 345 348 347 347 350 350 350 350 351 352 352 352 352 352 352 352 352 353 353 354 354 354 353 351 350 348 348 349 350 351 351 351 351 352 352 352 352 352 351 350 351 351 351 351 351 352 350 350 351 351 351 350 350 349 349 351 351 349 349 350 348 345 344 342 340 338 337 337 337 336 336 339 344
363 366 367 364 364 364 367 369 366 363 362 364 367 366 367 368 364 364 365 357 353 353 350 345 344 345 345 347 349 351 351 350 350 351 353 353 353 352 352 352 352 353 353 354 354 353 353 352 349 347 348 349 350 351 351 352 352 352 353 352 352 353 351 350 351 351 351 351 351 351 350 350 350 350 351 350 350 349 349 351 351 351 351 350 349 347 346 342 341 340 339 338 337 337 338 340 344
365 371 369 364 368 370 367 368 366 363 361 363 367 367 367 367 365 363 362 358 356 356 351 343 344 345 344 347 350 351 351 351 351 351 352 352 353 353 352 352 352 353 354 354 353 353 354 353 349 348 349 350 351 351 351 352 352 352 352 352 352 351 351 350 351 351 351 350 350 350 350 349 349 349 350 350 350 349 349 350 351 351 350 349 349 348 347 344 342 342 341 338 336 337 338 341 344
367 372 369 368 374 371 364 365 363 362 363 365 368 369 368 365 362 360 362 362 358 356 349 344 345 345 344 347 351 352 351 352 351 352 352 351 352 352 352 352 352 353 354 355 354 353 352 352 350 348 349 351 351 351 351 351 351 350 350 350 351 351 351 351 350 350 350 350 349 349 349 349 349 349 349 350 350 349 349 349 349 350 349 348 347 347 346 344 343 342 341 338 335 337 339 342 344
366 369 373 374 373 368 364 364 361 360 364 367 369 370 367 362 358 359 363 363 359 354 348 346 348 346 344 346 350 352 352 352 352 351 351 351 352 351 351 351 352 353 353 354 355 354 353 353 352 349 349 350 350 350 350 350 350 349 349 349 350 351 350 350 351 350 350 350 349 349 348 349 348 349 349 349 350 350 350 350 350 349 349 349 347 346 346 344 342 341 341 340 339 340 342 345 346
365 368 375 371 366 367 364 363 363 362 365 367 368 368 365 362 364 364 361 359 358 355 348 347 347 346 344 345 347 351 352 352 352 351 352 351 351 351 351 351 352 352 351 351 353 354 354 353 353 352 351 349 350 350 349 348 348 348 348 349 350 350 349 349 350 350 350 350 349 348 347 348 348 349 349 349 350 350 351 351 350 349 348 349 347 346 346 344 343 343 344 345 345 345 346 347 348
364 365 369 364 361 365 363 362 364 362 363 366 366 366 363 363 368 368 362 360 358 352 347 345 344 344 343 344 346 348 350 350 351 351 351 352 352 352 351 351 352 352 351 350 352 354 354 354 353 353 351 350 353 351 349 348 347 347 348 348 348 348 347 347 349 349 351 351 349 347 347 348 348 349 348 348 349 349 350 349 348 348 348 347 347 347 347 347 346 347 348 348 348 348 348 348 348
365 365 362 360 362 365 363 362 364 362 360 362 364 362 361 363 366 367 366 360 354 349 345 344 342 342 341 344 346 346 348 348 349 350 351 351 352 351 350 351 352 351 350 350 351 352 354 355 352 349 348 350 353 351 349 348 347 346 346 347 346 346 346 346 347 348 350 351 349 346 345 347 347 347 346 346 347 347 347 347 348 349 350 348 348 349 351 350 349 349 349 349 349 348 348 348 347
364 365 362 361 363 364 363 362 363 365 361 361 364 360 361 369 366 364 367 357 350 349 345 343 342 340 342 343 345 346 347 347 347 348 349 350 350 350 350 351 350 348 349 350 350 351 353 353 351 347 348 349 350 350 348 348 348 347 347 348 348 348 348 347 347 348 349 350 350 347 345 345 346 345 344 345 346 346 346 346 348 350 350 348 349 350 351 350 349 349 349 349 348 348 347 347 347
364 364 364 362 362 362 362 361 362 364 363 361 362 361 362 366 364 363 365 355 347 348 345 343 342 340 342 343 345 346 346 346 347 347 347 348 349 349 350 350 349 348 348 350 350 351 352 351 349 347 348 349 349 349 348 348 348 348 349 348 350 352 350 348 347 347 348 350 351 349 347 344 344 344 343 344 345 345 345 345 347 349 350 349 349 350 350 349 349 350 350 349 347 347 347 347 346
363 362 363 364 364 362 363 362 361 363 363 360 360 365 367 361 360 362 361 353 347 346 345 344 342 341 342 342 344 345 346 345 345 346 346 347 348 348 350 351 351 350 350 351 351 352 352 349 349 348 348 350 350 349 349 349 348 349 349 349 352 353 351 349 347 347 348 350 351 351 350 345 342 342 343 343 344 345 344 345 346 348 349 349 350 349 349 349 349 349 350 349 348 348 347 347 346
360 360 363 365 366 363 362 362 362 364 362 361 364 370 372 363 357 360 354 349 348 346 346 343 342 342 341 343 344 345 345 344 345 345 345 346 347 348 351 351 351 352 351 352 352 351 350 348 348 347 349 350 351 350 349 349 350 349 349 351 353 352 350 349 348 348 347 350 352 352 351 347 343 343 343 344 344 344 345 346 347 348 349 349 349 349 349 349 348 349 349 349 349 348 347 347 346
361 364 365 364 365 365 364 364 364 367 365 365 371 370 373 369 358 357 351 346 347 345 345 343 342 341 341 344 344 345 344 343 344 343 345 346 346 348 350 351 352 351 351 351 352 351 350 350 349 348 349 350 350 350 349 348 350 350 350 353 353 350 349 348 348 349 347 349 352 353 351 348 346 345 346 345 344 346 346 347 348 348 348 348 348 349 349 349 349 350 350 349 349 348 347 346 345
361 366 369 366 367 366 364 365 365 368 367 367 371 368 373 375 365 356 348 346 346 344 345 343 341 341 342 344 343 345 343 342 343 343 345 345 346 347 347 350 350 350 350 349 351 352 351 352 352 349 349 349 350 350 349 349 350 351 351 352 351 348 348 348 348 350 349 349 350 351 351 349 348 348 348 347 346 346 347 347 347 348 348 348 348 348 348 348 349 350 350 350 350 349 348 347 346
364 367 371 370 372 370 364 363 364 368 366 364 368 362 365 374 369 356 346 347 346 344 345 342 341 342 342 344 343 344 343 343 343 343 345 345 345 346 346 348 349 350 350 350 352 353 353 353 351 349 349 351 351 350 350 350 350 351 351 351 349 347 347 348 350 351 352 350 350 351 351 349 348 348 348 348 346 346 347 347 347 347 348 349 350 349 348 347 347 349 350 351 350 350 351 347 346
364 365 371 373 368 367 365 361 364 370 362 361 366 357 358 369 367 359 349 346 346 345 344 341 341 342 343 343 343 344 344 343 344 344 345 344 344 345 346 347 348 349 350 350 351 351 352 353 351 348 350 353 353 351 350 351 350 350 350 349 348 348 348 350 350 351 353 353 352 353 352 351 350 349 347 347 347 346 347 348 347 347 349 351 351 350 348 348 348 350 351 352 352 351 351 348 347
364 358 362 371 364 364 367 362 363 368 361 360 363 357 361 366 361 361 354 346 346 345 343 342 342 343 343 343 343 344 344 343 344 344 344 344 344 345 346 347 348 349 349 350 350 350 352 353 352 350 351 353 352 351 351 351 351 350 350 349 348 348 349 350 350 351 353 354 354 353 353 352 352 350 347 347 347 348 348 348 348 348 350 352 351 349 349 349 350 352 353 355 353 350 350 349 347
367 358 356 363 363 364 368 366 364 364 364 364 361 360 365 365 357 361 354 344 345 345 343 343 343 343 342 343 343 343 344 344 344 343 344 344 344 345 347 348 348 348 348 350 350 351 352 352 353 352 353 353 352 351 351 351 351 350 350 349 348 349 349 350 351 352 352 353 353 353 353 353 353 352 348 346 347 348 349 349 350 350 350 351 349 350 352 351 353 355 355 355 352 349 349 349 346
360 360 358 361 363 362 364 369 367 363 367 367 362 362 363 361 359 361 356 349 348 345 344 345 343 343 343 343 343 343 344 344 344 343 343 344 344 345 347 347 347 348 348 349 350 352 352 352 353 353 353 353 353 352 352 351 351 350 350 349 347 347 349 350 351 351 350 350 352 353 354 354 354 352 348 346 346 348 349 350 350 350 351 351 351 353 354 353 354 355 355 353 351 349 349 349 347
352 353 353 356 362 362 362 367 370 366 367 368 364 364 364 362 360 357 356 357 352 346 346 347 345 344 343 343 343 343 344 344 344 343 343 344 345 346 346 346 347 348 348 349 350 351 352 352 352 352 353 353 353 353 352 351 350 350 350 349 348 347 348 350 350 350 349 349 349 350 354 354 352 351 347 346 347 348 349 350 351 352 353 354 354 355 354 354 354 354 353 351 350 351 350 348 348
355 355 353 353 358 362 366 367 368 368 368 370 366 364 368 366 362 356 354 357 352 349 349 348 347 345 344 343 342 343 344 344 343 342 344 345 346 348 346 346 348 348 349 350 350 351 352 352 352 352 354 354 354 353 352 351 350 351 350 349 349 347 348 349 349 351 351 349 347 347 351 351 350 350 347 347 348 350 351 352 354 355 354 354 355 355 354 355 355 354 353 353 351 350 349 348 347
356 356 354 355 356 359 366 367 365 366 368 369 365 363 366 365 361 357 357 357 352 350 350 350 351 347 344 343 342 343 345 344 343 343 345 345 347 348 347 347 349 349 350 350 351 351 352 352 352 353 354 355 354 354 353 351 351 351 351 350 349 348 348 349 349 351 352 350 348 348 350 350 348 346 344 346 348 351 353 354 355 355 353 352 353 353 354 354 354 354 354 354 352 350 349 347 347
351 353 353 353 354 360 366 367 365 365 367 365 363 364 365 363 361 359 361 363 358 355 353 351 350 347 347 346 342 345 346 343 343 344 344 346 348 348 348 349 349 350 351 351 352 352 352 352 352 353 354 355 355 354 353 352 352 351 351 351 350 349 348 349 351 353 353 352 352 351 351 352 351 348 347 349 350 351 352 352 352 353 353 352 351 351 353 353 354 354 354 353 352 352 350 347 346
348 350 351 350 355 362 363 365 365 363 366 365 361 364 364 362 362 362 364 366 364 364 363 362 356 349 351 348 342 346 346 344 344 344 344 345 348 349 350 350 350 351 352 351 352 354 354 353 352 352 353 354 354 353 352 352 352 351 352 352 351 350 349 350 351 353 354 354 355 354 351 352 354 353 352 353 352 351 350 350 351 352 352 351 349 350 352 353 354 354 355 354 352 352 350 346 346
345 347 344 348 358 359 357 362 364 363 366 366 364 364 364 362 362 365 364 363 364 365 365 368 365 356 354 350 345 347 346 345 345 344 345 346 348 351 352 352 352 352 352 352 353 354 355 354 353 353 353 354 354 353 352 352 351 351 352 352 351 350 350 351 352 353 354 354 356 355 351 350 353 354 353 354 355 351 349 350 351 350 349 348 348 350 352 352 354 356 355 354 353 354 353 349 348
339 346 343 351 360 357 358 361 363 364 364 366 366 361 360 362 364 368 367 364 367 366 363 367 368 364 361 353 348 348 346 346 346 345 346 345 347 352 353 352 353 353 354 354 354 355 356 355 354 353 353 353 353 352 352 351 351 351 351 351 351 350 351 351 353 354 354 355 357 355 353 351 351 354 354 355 355 351 350 349 349 348 346 347 350 351 353 353 353 355 355 356 356 356 355 351 349
332 347 350 356 362 360 363 362 360 361 359 364 365 355 356 361 364 368 369 369 370 367 365 367 367 366 361 354 350 348 347 347 346 345 346 346 348 351 353 353 353 353 354 354 354 355 355 354 353 354 354 353 352 352 352 352 351 350 351 351 350 351 352 352 353 354 354 356 358 355 354 352 352 354 355 355 354 352 352 351 347 346 346 348 352 353 353 353 353 354 355 356 356 355 355 352 351
328 347 355 357 363 362 363 360 355 355 356 364 366 357 354 356 361 367 367 369 369 365 367 366 364 366 358 355 355 349 347 347 346 346 346 347 349 351 354 354 353 354 355 354 355 355 355 354 354 354 354 352 352 353 352 351 351 351 351 351 350 351 353 353 352 353 354 355 357 355 353 353 353 355 354 353 353 353 354 353 347 345 348 352 353 354 354 353 353 354 355 355 354 354 354 353 353
329 348 355 356 361 362 362 359 355 356 358 362 364 361 356 352 359 367 365 367 369 367 369 367 363 362 355 354 356 349 346 347 346 347 347 348 349 351 354 354 354 354 355 355 355 356 356 356 355 354 354 354 354 355 353 351 353 353 353 352 350 350 353 354 353 352 354 355 356 355 354 354 354 354 354 352 352 353 353 352 348 347 352 354 353 353 354 353 354 355 354 354 354 354 353 354 353
335 347 352 354 360 361 359 357 355 356 355 355 359 360 355 352 359 368 367 366 369 368 367 367 364 361 355 353 352 348 347 348 346 347 348 348 350 350 352 354 354 355 355 356 356 357 357 357 357 355 355 355 355 356 354 353 355 354 355 354 352 352 354 354 353 352 354 355 354 353 355 356 354 354 355 352 353 355 354 352 351 351 353 353 353 354 354 355 356 355 354 355 355 354 354 354 352
335 342 350 352 357 358 357 357 353 352 353 352 355 355 353 353 357 364 366 364 367 368 365 364 362 359 357 353 349 348 349 348 347 347 347 348 350 350 352 353 353 355 355 355 357 358 357 358 358 358 357 356 356 357 355 355 356 355 355 354 354 354 354 354 353 352 351 354 355 351 353 356 354 353 355 354 354 355 354 353 353 354 354 352 352 353 355 357 357 357 357 356 356 354 353 353 351
331 340 349 350 356 357 354 355 352 350 351 349 350 352 351 353 357 360 362 364 367 369 365 363 361 357 356 353 348 348 350 350 349 348 347 348 350 350 352 353 352 354 355 355 357 358 358 358 358 360 359 357 357 357 356 356 356 355 354 353 354 354 354 354 354 352 350 351 353 352 352 355 355 354 355 356 355 354 353 353 353 355 355 353 352 353 356 357 357 358 358 357 357 355 354 353 352
327 338 344 344 352 354 348 347 347 347 346 343 347 353 347 347 357 361 361 362 367 370 366 362 360 357 356 353 349 348 351 351 350 352 350 348 349 350 351 351 352 354 354 357 359 358 359 359 358 360 360 358 359 357 356 357 356 355 354 353 354 353 353 355 354 352 352 350 351 352 353 355 357 355 355 356 357 355 353 354 355 355 354 354 353 353 356 356 356 357 357 356 357 356 356 355 353
329 332 330 330 339 343 342 343 342 340 340 341 347 352 348 349 359 364 361 359 363 367 367 363 359 356 355 353 349 349 350 350 351 354 353 349 348 348 349 350 352 353 354 358 360 359 359 359 358 360 361 360 360 358 358 359 357 355 355 353 354 354 352 355 355 353 353 351 351 353 354 355 356 355 355 355 357 356 355 356 356 355 354 354 353 354 356 356 356 357 357 357 357 356 357 357 355
328 327 322 322 328 332 335 339 338 336 339 344 350 353 349 350 360 364 360 357 358 361 363 364 361 355 354 354 349 349 350 350 353 352 351 352 349 347 348 349 352 353 354 358 360 359 359 360 359 360 361 361 360 359 360 362 359 356 355 354 355 355 353 353 354 354 355 354 354 354 354 355 354 353 354 354 356 356 356 356 355 354 354 354 353 354 355 356 356 357 357 357 358 358 358 357 357
327 329 328 322 321 324 327 331 334 337 342 344 348 353 346 347 363 367 358 356 356 356 358 363 366 360 354 355 352 349 349 350 352 351 350 351 348 347 348 349 352 353 354 357 359 359 360 360 360 360 361 362 360 359 360 361 360 357 357 357 356 356 354 352 354 356 356 356 356 355 354 355 354 353 353 353 354 355 355 355 355 355 355 355 355 355 356 357 357 357 356 357 358 358 357 356 357
326 331 328 321 322 324 322 328 335 336 342 344 344 352 352 353 368 367 356 358 357 355 357 359 367 366 356 357 356 350 349 349 350 350 350 350 347 348 349 350 352 353 355 357 357 359 360 361 361 361 361 361 360 361 360 360 360 359 358 358 358 357 355 354 356 357 356 357 358 356 355 355 355 354 353 353 354 355 354 354 355 355 356 356 357 356 356 356 357 357 357 357 358 357 356 356 357
323 323 321 324 330 327 319 322 330 330 337 344 344 350 353 353 362 362 357 361 357 358 361 358 364 368 362 359 357 353 350 350 351 349 349 350 348 348 350 349 351 352 353 356 357 358 359 360 361 362 362 361 360 361 360 360 360 359 358 357 356 356 357 357 358 359 357 356 358 358 357 355 355 354 354 354 354 354 354 354 355 356 357 356 355 354 356 356 355 355 357 357 357 357 357 357 357
319 316 318 326 328 326 320 319 326 326 331 343 344 344 348 348 354 361 359 361 360 359 362 359 361 365 363 358 356 358 356 351 350 350 349 349 348 348 350 349 349 351 352 354 356 357 358 360 361 362 363 361 361 360 359 361 360 358 359 356 353 356 359 358 359 360 358 357 357 358 357 357 356 355 355 354 355 354 355 356 355 356 357 355 354 353 355 359 356 353 355 357 355 356 359 359 358
322 318 320 323 317 318 320 317 323 325 328 343 345 339 344 345 348 355 357 358 362 361 361 360 359 359 360 358 355 359 360 354 349 351 352 349 347 348 348 349 350 349 351 354 356 357 359 359 360 362 362 361 361 360 359 361 360 359 359 357 355 357 359 358 357 358 357 356 357 357 357 358 357 356 355 355 356 355 356 356 355 355 357 355 356 355 353 357 358 354 356 358 353 353 358 359 358
323 320 320 323 316 319 320 316 321 325 325 339 344 341 345 350 353 358 357 357 359 360 362 361 358 357 358 358 355 358 364 362 351 350 353 348 346 348 347 348 350 349 351 353 355 357 358 360 360 361 362 361 361 361 360 360 360 360 359 358 358 358 357 358 357 357 357 356 356 357 356 357 357 356 356 356 356 355 356 357 355 356 357 355 358 358 353 355 358 354 356 359 356 354 356 356 355
319 316 314 317 316 320 322 318 319 322 323 329 338 342 344 354 366 363 357 359 359 359 361 360 358 357 357 358 357 358 364 366 356 350 352 348 345 347 347 348 349 349 352 353 354 357 358 359 360 360 361 362 361 360 359 360 360 359 359 360 360 359 357 358 357 357 357 355 356 357 356 356 356 355 356 356 356 355 355 356 354 355 356 355 356 358 356 356 357 354 355 359 359 357 358 357 357
319 316 314 315 317 316 316 320 318 318 321 323 330 340 343 354 368 364 361 363 360 359 361 360 360 358 357 358 358 358 361 365 360 352 350 349 346 345 346 348 349 349 351 352 352 355 357 358 359 360 361 361 361 361 359 360 360 359 359 360 360 359 358 358 357 356 356 355 355 355 355 356 356 355 355 355 356 356 356 355 354 353 355 356 355 356 357 357 356 355 354 356 357 358 359 359 359
Wind_Speed
5 7 9 7 4 0 0 1 1 1 1 1 3 1 0 2 1 3 3 3 4 1 1 4 7 8 8 9 9 9 10 2 5 4 2 8 22 22 17 21 21 19 20 20 20 19 19 20 21 21 21 19 18 17 16 15 15 15 16 16 15 14 14 15 16 15 15 16 14 13 12 13 14 14 15 16 18 19 19 18 17 17 16 16 16 17 16 16 16 17 17 18 18 18 19 19 19
7 7 7 5 2 1 1 1 1 1 0 1 2 1 1 2 1 4 5 4 3 2 4 7 11 12 11 10 8 12 13 8 7 7 5 21 26 19 22 23 22 23 22 22 22 22 21 21 20 21 20 18 17 17 16 15 15 15 16 15 14 14 15 16 16 15 15 15 15 13 12 13 13 14 16 16 17 18 18 18 17 17 16 15 16 17 16 16 16 16 16 16 18 18 18 18 19
8 5 5 6 1 1 1 1 2 1 0 1 1 1 0 4 2 3 8 5 5 4 6 8 10 10 11 12 10 12 7 8 11 11 9 23 19 19 26 22 25 25 24 24 23 23 23 22 20 20 19 18 17 17 16 15 15 14 15 14 14 14 15 16 15 15 15 14 15 14 13 13 12 13 17 16 16 16 16 17 16 16 15 15 16 17 16 16 16 16 16 15 17 17 18 18 18
8 3 4 6 1 1 1 1 1 0 1 1 1 0 1 5 6 3 9 6 5 4 6 9 7 7 13 15 9 11 9 5 10 11 9 18 20 25 26 23 26 24 24 25 24 24 23 22 21 19 18 17 17 16 16 15 14 14 14 14 14 14 14 15 14 15 14 14 14 13 12 12 12 14 16 16 15 15 15 16 15 15 15 15 16 16 16 16 16 16 16 15 17 18 18 17 17
7 4 4 4 1 0 1 0 0 0 1 1 3 1 2 7 10 5 8 5 6 6 7 8 7 7 12 12 6 7 9 8 9 12 14 20 27 29 26 25 25 23 25 25 25 24 22 22 20 18 18 17 17 16 15 15 14 13 14 14 14 14 14 14 15 15 13 13 14 14 12 11 13 14 14 14 15 15 15 15 15 15 15 15 15 15 15 16 16 16 15 15 16 17 16 16 17
7 4 2 2 1 1 1 1 1 1 1 1 2 3 3 7 10 6 9 7 7 5 8 9 10 10 9 8 6 7 11 12 11 14 20 25 29 29 27 26 24 24 25 24 24 23 22 20 18 18 17 17 16 15 15 14 14 13 13 13 13 14 13 13 14 14 13 13 14 14 13 12 13 15 13 13 14 14 15 15 15 16 15 15 15 15 15 17 16 15 15 15 15 15 15 15 16
6 4 2 1 1 0 0 1 1 2 0 1 1 5 8 10 7 8 9 8 6 5 9 12 14 12 8 8 8 12 17 16 15 17 24 28 29 29 26 25 25 25 23 23 23 22 20 18 17 16 15 16 15 15 14 14 13 12 13 13 13 14 13 12 13 14 13 13 14 15 14 13 13 14 13 13 14 14 14 15 15 16 16 15 15 15 15 16 16 15 14 13 14 14 14 15 16
4 3 0 1 1 0 1 2 1 0 2 2 3 4 11 10 6 8 7 7 5 5 11 14 14 13 11 10 8 15 22 19 21 25 28 29 30 28 25 25 26 24 23 23 21 20 19 17 16 15 15 15 14 14 13 13 12 12 13 13 13 14 13 12 13 14 13 13 14 15 15 15 14 14 13 13 13 13 14 14 15 15 15 15 15 15 15 15 15 15 13 12 13 13 14 15 15
7 4 0 1 1 0 1 2 1 0 2 2 4 7 8 7 7 8 7 6 6 6 12 14 12 13 13 13 10 12 21 24 28 29 28 30 31 27 24 26 25 24 24 22 21 20 18 17 16 15 15 14 13 13 12 13 12 12 14 13 13 13 13 13 13 14 13 13 14 14 15 15 15 14 14 13 13 13 14 14 14 14 14 14 14 14 15 15 14 14 13 12 12 12 13 14 14
4 3 0 0 1 0 1 1 0 1 1 2 5 9 6 6 6 7 8 7 8 9 14 15 13 15 16 14 9 11 21 29 30 27 28 31 29 25 24 25 24 26 25 23 22 20 19 17 16 15 15 14 13 13 13 13 13 13 13 13 12 12 12 13 14 14 14 13 13 14 15 15 14 15 14 13 13 13 14 14 13 13 13 13 13 13 14 14 14 13 12 12 12 12 13 13 13
2 1 1 0 1 1 2 0 0 2 1 1 5 8 4 6 5 6 10 9 7 12 17 15 13 15 16 12 7 15 28 29 29 28 28 28 26 25 25 24 24 25 25 23 22 20 18 16 15 15 14 14 13 13 13 13 13 13 13 13 12 11 12 12 13 14 13 13 13 13 14 14 13 14 14 13 13 14 13 13 13 12 13 13 12 12 13 13 13 13 12 12 11 11 12 12 13
2 1 0 1 0 1 2 2 2 2 2 1 3 5 3 1 6 8 9 9 10 15 14 11 12 12 15 10 6 19 28 25 28 30 28 27 26 27 25 24 24 24 24 23 21 20 18 16 15 14 14 13 13 13 14 14 13 12 13 13 12 12 11 12 12 13 12 12 13 13 13 13 13 13 14 13 13 14 13 13 13 13 13 12 12 11 12 13 13 13 12 12 11 10 11 12 13
2 1 1 1 0 0 3 4 3 3 1 1 4 2 4 4 3 9 9 11 11 13 13 12 13 12 13 10 8 16 22 24 27 29 28 27 26 26 25 25 25 23 23 23 22 21 18 17 16 15 14 14 14 14 14 14 13 12 13 13 13 12 12 12 12 12 12 12 12 12 13 13 13 13 14 14 13 13 13 13 12 12 13 12 11 11 13 13 12 11 11 12 11 11 12 12 12
2 1 0 1 0 0 2 3 3 4 1 4 3 1 4 4 1 7 8 10 9 11 15 16 14 12 12 11 10 8 16 27 28 28 28 27 26 26 25 25 25 24 23 23 23 21 19 17 17 16 15 15 15 14 14 13 13 13 13 13 13 13 13 12 12 12 12 12 12 13 13 12 13 13 14 14 14 13 13 12 12 12 13 12 11 12 13 13 11 11 11 12 12 12 12 12 12
2 1 0 1 0 1 1 2 4 4 3 6 2 2 5 4 1 7 7 8 8 10 15 16 12 10 11 11 10 10 20 30 28 28 28 27 28 25 24 25 24 23 22 22 22 21 19 18 17 17 16 16 15 15 14 13 13 13 13 14 13 13 13 12 12 12 12 12 12 13 13 13 13 13 13 14 14 13 13 12 13 13 13 12 12 13 13 12 12 12 12 12 12 11 11 12 13
1 0 1 1 1 2 1 2 4 4 3 6 4 5 6 2 1 5 5 7 8 9 11 13 10 9 12 12 15 21 27 30 29 30 29 28 28 24 24 23 23 23 22 22 22 22 20 18 17 16 16 16 16 15 15 14 14 13 14 14 14 14 14 14 13 13 13 12 12 13 14 14 14 14 14 14 14 13 13 13 13 13 13 12 12 12 12 13 13 13 13 13 12 12 12 14 15
2 0 0 1 2 2 3 4 4 4 5 5 4 4 5 2 1 2 5 8 10 7 8 13 12 11 14 17 26 31 30 29 29 31 29 26 25 22 21 21 22 22 21 21 21 21 19 17 17 16 17 16 16 16 16 15 14 14 14 14 15 14 15 15 15 15 14 14 14 13 14 14 15 15 14 14 13 13 13 13 13 13 13 12 12 11 12 13 13 13 13 13 12 12 13 14 15
1 0 0 2 2 1 3 6 3 4 9 7 5 5 5 6 3 3 6 9 11 8 9 14 15 14 18 27 34 32 30 29 28 28 26 23 21 19 18 19 20 20 21 21 21 20 18 17 17 17 17 17 16 16 16 16 15 15 15 15 15 15 15 16 16 17 16 15 15 14 14 15 16 16 15 15 13 13 13 13 13 13 13 12 12 11 11 13 13 13 13 12 13 13 13 13 12
1 1 1 3 2 2 3 6 4 4 9 9 8 8 6 7 5 4 6 9 11 10 11 15 17 17 21 30 35 30 29 28 25 26 24 21 20 18 17 18 18 19 20 21 22 20 18 18 17 17 18 17 16 16 16 16 16 16 16 16 16 15 15 16 16 16 16 16 15 15 14 15 16 16 15 14 13 13 12 12 13 13 13 12 12 12 12 13 13 12 12 12 13 13 13 12 11
2 2 2 2 1 2 2 3 6 8 8 11 8 7 7 8 6 4 6 9 9 10 13 16 18 19 19 24 30 31 27 25 24 24 23 21 20 19 18 18 18 18 20 22 22 20 19 19 18 17 17 17 17 16 16 16 16 16 16 17 16 15 14 15 15 15 16 15 14 14 14 15 16 15 14 14 13 13 12 12 12 13 13 12 12 13 12 12 12 12 12 11 12 12 12 11 9
2 2 2 2 3 2 5 5 3 7 4 10 7 8 8 6 3 4 8 8 7 9 13 16 20 21 19 19 25 29 27 25 24 22 22 21 20 19 19 19 18 19 21 22 21 20 20 19 19 18 17 17 17 17 17 16 16 16 16 16 15 14 15 15 15 15 15 15 15 14 15 16 16 16 15 14 14 14 14 13 12 12 13 13 12 12 12 11 11 10 9 9 9 9 9 8 8
2 1 1 4 6 4 4 5 5 8 5 4 5 6 7 5 3 3 7 6 7 10 13 17 19 19 19 18 20 23 23 23 23 22 22 22 20 19 18 19 19 20 21 21 21 21 20 19 19 19 18 18 17 17 16 16 16 16 17 16 15 15 14 14 16 17 16 16 15 14 15 16 16 16 15 15 14 14 15 15 14 13 12 13 13 11 10 9 9 8 7 7 7 7 7 6 6
0 3 4 5 4 1 2 2 4 5 7 6 2 3 0 7 2 4 4 7 10 13 16 17 17 18 20 20 19 17 17 18 21 24 24 23 22 20 20 19 21 23 22 21 22 22 20 18 18 18 19 19 18 17 16 17 17 17 17 16 15 15 14 14 16 17 17 17 14 13 16 17 16 16 16 15 14 14 15 15 14 12 11 12 13 9 7 6 7 7 6 6 6 6 6 6 5
2 3 2 1 2 2 2 2 4 6 7 5 2 5 4 7 4 4 4 10 14 17 16 16 16 19 19 17 16 15 15 16 19 23 24 24 24 22 21 22 25 25 23 21 22 22 19 18 17 18 20 19 18 17 17 17 17 17 17 17 16 15 14 14 16 17 18 18 15 12 14 17 16 16 17 16 15 15 14 14 14 12 11 12 11 9 7 6 6 5 5 5 5 6 6 5 4
3 1 2 2 3 4 3 4 5 5 3 3 4 3 6 8 5 3 6 12 17 17 17 16 16 16 15 15 15 14 13 15 18 20 20 23 26 24 22 24 25 24 22 22 22 21 19 18 18 19 21 20 18 17 17 16 16 17 17 18 16 13 13 14 16 18 17 18 17 13 11 14 16 16 16 17 16 15 14 14 14 12 12 11 10 8 7 6 6 5 5 5 5 6 5 5 4
4 4 3 4 6 3 4 6 5 3 3 4 3 4 5 7 5 3 8 15 17 18 18 16 16 15 13 13 13 13 12 15 18 18 20 22 25 25 23 24 23 22 23 22 21 20 19 18 19 20 21 20 18 16 16 16 16 16 17 17 15 12 13 15 17 18 18 19 19 16 11 11 15 16 15 15 16 15 14 14 12 11 11 10 9 8 7 6 5 5 4 4 5 4 4 5 3
7 7 2 6 7 4 5 6 2 3 3 3 3 2 4 4 5 3 8 15 18 17 17 15 15 14 13 13 12 12 12 15 18 19 21 20 21 24 24 24 21 22 25 23 22 21 21 20 20 20 20 20 18 15 15 16 16 16 16 16 13 12 13 15 18 17 18 19 19 18 13 11 14 15 14 14 14 14 13 12 10 9 9 9 9 8 6 4 4 4 3 3 4 4 4 3 3
11 10 7 8 7 6 6 5 2 3 2 2 1 1 5 2 2 6 11 15 17 17 17 15 14 12 12 14 12 11 11 15 20 20 20 19 18 22 25 24 23 23 26 26 24 22 22 21 20 20 20 19 18 15 14 15 15 16 16 15 13 13 14 16 18 17 17 18 18 17 14 14 14 14 13 13 14 14 12 10 9 8 8 8 8 7 6 4 4 3 3 3 3 4 4 3 4
9 7 8 7 5 5 5 3 2 5 1 4 4 2 4 4 2 10 14 14 17 17 15 14 13 11 11 13 10 8 10 15 18 16 19 20 19 21 23 24 25 25 25 27 25 22 21 20 19 20 20 20 19 16 14 14 15 15 15 15 14 13 15 17 18 18 16 16 17 16 14 14 15 14 12 12 14 15 12 10 9 10 8 8 7 6 6 5 4 3 3 2 2 3 6 4 5
4 3 5 5 3 2 5 3 2 4 3 8 5 2 1 6 6 10 15 14 17 16 14 13 11 10 10 10 8 7 10 14 14 16 21 23 21 20 22 24 25 26 27 27 25 24 22 20 19 21 21 19 18 17 16 15 15 16 15 13 12 13 16 19 20 18 16 16 16 15 14 14 14 13 12 12 14 15 13 10 11 11 9 9 8 7 7 5 4 3 1 1 3 5 7 4 4
2 4 3 3 2 0 3 3 3 2 4 8 6 2 4 7 7 7 13 14 16 15 13 13 11 10 9 8 8 8 9 12 15 17 19 21 21 21 23 25 25 27 28 27 25 26 25 21 20 23 22 20 18 18 18 16 15 17 15 11 12 14 16 19 20 18 17 16 16 15 14 13 13 11 12 13 14 15 13 12 13 12 10 9 8 8 8 7 5 3 2 3 4 5 5 3 3
2 3 1 1 2 2 2 3 2 1 4 5 5 1 3 5 6 5 11 13 14 14 12 13 12 11 10 7 8 8 8 12 18 18 17 17 19 21 25 26 26 28 28 26 26 26 25 22 21 23 23 21 19 19 19 17 16 16 12 11 14 16 17 17 18 17 16 15 14 15 14 12 11 10 11 14 15 15 15 14 14 14 11 8 8 9 9 8 6 4 3 4 4 3 2 1 1
3 1 2 1 2 4 1 2 2 1 4 3 5 1 4 3 5 4 9 14 13 12 12 13 12 12 10 7 9 8 7 10 14 17 18 19 19 20 27 27 25 27 27 27 27 25 24 23 22 23 23 21 20 20 20 18 18 15 11 12 14 16 18 17 16 15 16 16 14 15 13 11 10 8 11 14 14 14 15 14 14 14 12 9 10 10 9 7 5 4 3 3 2 1 1 0 3
1 1 2 1 3 5 3 2 3 3 4 4 5 2 7 5 4 4 8 13 12 11 12 13 11 10 8 7 9 8 8 8 10 14 17 21 21 21 27 26 24 27 27 28 28 24 24 24 23 23 22 22 21 20 20 19 20 17 12 12 12 13 16 16 14 14 14 15 15 16 13 10 9 8 10 13 12 13 13 12 12 12 11 10 10 9 7 6 4 3 1 2 2 1 1 2 3
2 3 2 3 4 5 4 2 4 6 6 5 6 3 6 7 5 5 6 7 9 11 10 11 10 10 8 8 10 8 8 8 10 15 17 21 24 23 24 24 25 26 25 28 28 25 24 24 24 23 22 22 20 20 20 20 20 18 15 15 14 12 15 16 15 14 13 13 14 15 14 12 10 9 11 12 11 11 10 10 10 9 8 9 8 6 5 5 3 3 3 4 3 3 2 2 4
5 4 3 6 5 2 3 3 5 7 6 5 6 3 3 5 5 1 3 3 6 9 9 9 9 9 8 8 9 8 9 9 12 18 19 20 24 24 22 22 25 24 25 30 28 25 24 23 24 24 22 22 21 20 21 21 20 19 18 18 19 18 17 18 17 16 13 12 14 14 13 12 10 10 11 12 11 10 9 9 8 7 7 7 7 6 6 5 4 3 2 2 1 2 1 2 4
9 6 3 6 5 3 4 5 6 6 3 2 3 2 2 2 6 5 3 4 3 7 9 9 8 8 8 9 11 9 8 11 14 19 20 22 24 24 21 21 24 25 28 31 27 26 25 23 25 24 22 22 22 21 21 21 20 20 20 18 21 22 22 21 20 20 16 13 15 14 13 12 10 9 10 9 8 8 9 9 9 8 7 7 7 8 7 5 4 3 1 2 2 2 3 1 1
10 8 6 6 4 3 4 5 6 5 4 3 4 3 1 0 4 7 6 5 2 1 6 7 8 10 8 9 13 8 7 11 12 15 19 22 23 23 21 21 25 27 29 30 26 26 25 24 25 24 23 22 22 22 22 21 19 20 20 18 18 21 23 23 22 22 18 15 16 15 15 14 12 10 10 10 9 9 10 10 9 8 8 7 6 7 6 5 4 3 2 3 4 6 6 3 3
9 6 5 5 5 4 4 5 6 5 3 4 5 5 3 1 4 6 4 3 3 3 1 2 3 9 8 8 12 8 8 11 9 12 17 21 22 22 21 21 25 26 26 28 27 26 25 24 24 23 23 22 21 22 21 19 19 19 19 17 17 19 20 22 22 22 20 18 18 16 16 18 17 14 13 14 13 13 12 11 9 8 7 7 7 7 5 4 3 3 4 5 6 7 6 3 3
6 7 6 6 8 6 3 4 6 4 2 5 7 5 3 1 3 5 4 3 3 3 4 5 4 5 8 9 11 9 10 11 10 11 14 18 21 22 22 21 23 24 25 27 27 26 25 24 24 24 22 21 21 22 20 19 19 19 18 17 17 17 18 21 23 21 20 19 18 17 16 18 19 18 16 14 14 13 13 12 11 9 8 7 8 8 6 5 3 4 6 6 7 8 9 5 3
7 10 7 8 11 6 5 7 7 5 3 4 7 4 1 3 2 4 3 3 3 3 4 5 5 4 5 9 10 10 11 10 11 11 11 16 19 21 23 22 22 23 23 26 26 25 25 25 26 24 22 22 21 20 20 20 19 19 19 19 18 17 18 22 23 21 20 19 18 17 16 16 17 16 14 12 12 13 13 13 11 10 9 9 9 8 6 6 4 4 6 6 6 8 11 8 3
4 6 8 12 12 9 12 11 7 4 1 2 5 4 2 4 4 4 2 2 3 1 3 5 5 5 3 7 9 10 11 10 11 11 11 15 18 21 24 23 22 21 22 25 24 24 25 26 26 24 22 23 21 20 20 20 19 20 21 21 20 20 20 21 22 22 21 19 17 16 16 16 16 15 13 11 12 12 12 11 10 10 10 9 9 8 7 6 5 4 4 5 7 8 10 10 8
1 6 13 16 15 15 15 13 6 3 2 3 3 3 2 3 5 5 2 3 4 2 3 6 5 5 3 6 8 9 10 10 10 10 13 15 17 20 23 23 22 21 23 24 23 23 25 26 25 23 22 23 21 19 20 20 19 19 20 20 21 21 19 18 20 21 19 18 17 16 16 16 16 16 14 11 12 11 11 11 10 11 11 9 8 7 6 5 5 4 4 4 6 8 9 11 12
3 11 16 16 16 17 16 10 4 3 5 4 2 3 3 2 5 5 5 5 5 5 5 6 5 5 5 5 7 8 9 10 9 10 12 14 17 20 22 24 23 22 24 24 23 25 26 26 25 23 22 23 22 20 20 21 20 18 18 18 19 20 18 17 20 19 17 17 18 17 16 15 15 15 13 11 11 10 10 11 11 12 10 8 7 6 6 5 4 4 5 5 5 7 8 10 12
5 15 18 16 15 16 13 7 4 4 4 4 4 4 2 2 4 4 5 6 6 8 8 8 7 6 6 5 8 9 9 10 9 10 12 15 19 20 22 25 23 24 25 23 24 27 27 26 25 24 23 23 23 21 22 22 20 19 18 17 18 18 16 16 18 18 16 18 19 18 17 15 14 14 13 11 11 11 10 10 11 11 9 9 8 5 5 5 4 4 6 5 4 6 7 8 9
5 13 17 14 14 13 10 6 5 4 2 2 8 8 3 3 4 5 5 6 8 9 8 8 8 8 8 6 9 10 8 9 9 9 12 17 22 21 22 24 24 26 26 23 26 28 27 26 25 24 24 24 23 22 22 22 20 19 18 17 18 18 17 16 16 17 17 19 19 18 18 17 15 14 13 12 11 10 10 10 10 9 8 8 7 5 6 6 4 4 5 4 4 6 7 7 7
3 8 13 9 7 6 5 4 4 3 0 3 10 10 4 2 4 7 6 6 9 10 8 8 9 9 9 7 8 10 8 8 8 9 12 19 24 23 23 22 22 27 27 24 27 28 28 27 26 25 24 24 23 23 23 22 21 19 17 17 17 18 19 18 17 18 17 18 19 18 18 17 15 14 14 14 12 10 10 10 9 9 9 8 7 6 7 6 4 4 3 3 4 5 5 4 5
5 5 10 7 4 1 2 2 1 2 1 3 12 13 6 2 2 8 10 6 8 11 11 12 12 11 10 8 7 9 9 8 8 8 10 16 19 21 24 22 21 26 26 25 27 28 27 27 27 25 24 24 24 23 23 22 21 20 18 17 17 17 19 19 18 18 17 18 20 20 18 17 15 14 15 14 13 12 11 11 9 8 9 9 7 6 7 6 5 5 4 2 4 4 3 2 3
5 4 9 6 3 1 0 1 2 2 1 1 9 9 3 2 2 8 14 10 8 11 11 12 14 14 11 9 8 8 9 10 9 7 9 11 13 18 22 22 23 26 25 25 26 27 27 27 27 26 24 25 25 24 22 21 22 22 20 18 17 17 18 19 19 18 17 19 21 20 18 19 17 15 16 16 15 13 12 12 11 10 10 9 8 7 8 6 6 7 5 3 4 4 3 2 2
4 3 5 5 4 2 2 2 2 2 3 6 7 5 2 4 2 4 12 14 11 11 11 10 11 13 12 10 9 8 9 11 9 8 8 9 12 18 22 22 25 27 26 26 26 26 27 27 27 26 25 25 25 25 23 21 21 21 20 20 19 17 18 19 19 18 17 18 19 19 18 19 18 16 17 17 15 14 13 12 12 11 10 10 8 8 8 6 7 10 7 5 6 5 3 2 2
5 4 3 3 3 2 2 2 2 3 2 4 5 4 1 3 2 4 9 12 12 11 12 11 8 9 11 9 9 9 9 9 10 10 9 10 14 20 22 22 26 28 28 27 27 27 27 27 28 27 25 26 25 25 24 22 22 21 20 21 20 19 18 18 19 18 17 16 18 18 18 18 17 16 16 15 15 15 14 13 12 11 11 11 10 10 10 7 8 11 9 7 7 6 5 4 3
4 3 4 1 2 2 1 3 5 5 3 2 2 2 2 2 4 6 4 9 12 11 12 14 10 9 9 9 8 8 9 9 10 11 10 11 17 20 21 23 25 28 30 27 27 29 28 27 28 27 27 26 26 25 24 23 23 22 21 21 21 20 19 19 19 18 18 18 18 17 17 17 16 15 14 14 15 15 15 15 13 13 12 11 12 12 11 9 9 10 9 7 7 6 5 4 4
2 3 4 5 4 3 2 3 5 5 4 2 2 1 1 1 3 5 2 8 10 11 12 14 14 11 9 9 8 7 8 9 9 10 11 13 16 18 22 24 25 27 29 28 29 30 30 29 29 27 26 26 26 25 25 24 23 22 22 21 21 21 20 20 19 18 18 19 18 17 17 16 15 15 14 14 15 15 16 16 14 13 13 11 12 13 12 9 8 9 9 7 7 6 5 5 5
1 0 3 3 4 5 2 1 1 3 3 0 2 3 2 2 2 1 3 6 10 12 11 13 14 12 10 9 10 8 8 10 10 10 11 13 16 18 22 24 26 27 27 29 31 31 30 30 29 28 27 26 26 26 25 24 23 23 22 22 22 21 20 20 19 18 19 19 18 17 17 16 15 15 15 14 14 14 16 16 13 14 14 11 10 12 12 10 9 10 9 7 7 6 6 7 6
4 3 5 1 3 5 1 2 2 2 3 0 1 2 2 3 4 6 7 8 11 13 12 13 14 14 12 10 10 9 7 8 11 10 10 12 15 19 22 23 26 27 26 28 31 30 30 30 29 28 27 27 26 26 25 25 24 23 22 22 22 21 20 20 19 18 19 19 18 18 17 15 15 16 16 16 15 15 15 14 12 14 14 11 10 11 11 11 10 10 9 7 7 7 7 8 8
4 3 5 0 4 3 2 3 3 3 3 3 2 2 3 4 5 9 11 10 12 13 12 12 14 15 13 10 10 9 6 6 9 10 11 12 16 21 24 24 26 27 26 29 31 29 29 30 29 27 27 26 26 25 25 25 25 24 22 22 22 22 21 20 19 18 19 19 18 17 18 16 15 16 16 17 17 16 16 15 14 13 13 13 12 11 11 11 10 10 10 8 7 9 9 8 8
3 1 3 4 2 2 2 3 3 4 3 3 4 3 4 3 3 6 9 9 9 11 12 11 13 14 12 10 10 8 5 5 8 10 11 13 17 22 24 26 27 26 26 29 29 28 28 28 28 28 26 26 26 25 25 25 25 24 22 22 22 22 21 20 20 19 19 19 18 17 18 18 16 17 15 16 18 17 16 17 16 15 14 13 13 13 12 12 11 10 11 9 8 9 11 8 6
5 4 4 5 4 3 1 2 3 3 3 4 6 4 3 3 2 0 5 7 7 8 9 8 9 12 12 11 10 8 6 5 6 9 11 12 17 21 22 25 27 26 26 29 28 27 28 27 27 28 27 27 27 26 26 26 25 23 23 23 23 22 22 19 19 20 20 19 19 17 17 17 17 17 16 16 17 16 15 16 16 16 15 15 14 13 13 13 12 10 11 11 9 9 11 10 8
Wind_Direction
172 138 119 109 99 269 230 175 18 15 119 353 278 105 278 290 78 155 154 78 67 102 106 93 84 74 88 104 126 78 39 92 144 130 129 142 147 149 144 144 147 145 142 135 133 131 131 128 124 122 119 120 121 121 120 117 116 112 109 108 110 114 113 111 113 113 116 121 121 119 116 112 111 110 108 105 109 114 115 114 116 115 112 109 106 103 101 100 102 102 102 102 103 104 105 105 105
158 129 120 125 123 5 56 247 72 49 26 310 288 57 176 350 6 160 127 98 105 143 107 91 83 80 92 103 100 70 38 9 93 97 95 133 141 145 144 148 148 144 138 132 131 128 128 128 126 124 121 123 122 121 120 119 117 114 113 112 113 116 115 111 115 118 120 123 122 121 119 116 114 114 112 109 111 114 116 118 120 119 115 110 106 103 101 101 102 102 103 105 106 107 109 109 108
157 133 158 164 128 43 129 296 92 144 91 212 286 329 90 56 285 166 114 134 141 138 104 84 78 81 81 70 55 75 68 11 82 94 111 137 143 147 147 150 147 141 136 134 132 129 129 129 128 124 122 123 122 121 121 120 119 118 117 117 118 118 118 114 114 119 121 121 120 121 122 120 118 117 116 113 114 115 117 120 122 120 116 111 107 104 103 103 104 104 104 105 108 109 110 110 108
174 176 180 159 125 19 97 35 90 225 144 211 115 283 59 95 247 213 122 152 130 101 84 80 73 85 87 89 88 85 93 51 79 98 125 145 146 145 147 150 145 139 138 136 132 130 130 130 127 123 124 124 123 123 122 121 121 120 118 118 117 115 119 119 118 119 119 121 120 120 122 121 120 120 118 116 116 116 117 120 123 120 114 111 108 107 107 106 105 106 105 105 108 108 109 108 107
174 172 172 151 109 64 98 11 159 231 196 208 113 140 116 141 219 205 121 118 89 83 96 102 96 101 93 98 112 92 110 104 92 107 124 140 142 143 144 145 141 137 138 134 131 130 130 129 125 125 127 126 126 125 123 122 121 119 116 116 117 117 120 124 125 123 123 124 122 123 124 123 120 117 117 118 117 117 119 121 123 121 116 113 110 110 111 110 107 106 105 105 107 109 108 107 107
169 145 111 113 32 90 117 322 201 236 241 90 116 140 150 192 217 153 108 102 93 93 108 104 96 99 88 82 90 115 133 123 119 124 128 136 140 142 142 142 140 137 135 131 132 130 129 128 126 128 127 126 126 125 124 122 120 119 116 116 119 120 123 129 130 127 128 126 124 126 127 127 121 116 117 119 117 117 120 122 124 124 121 118 116 114 113 112 109 106 106 107 110 111 111 110 110
161 153 67 40 66 40 162 266 220 253 359 54 14 147 173 214 203 123 112 111 96 88 103 105 107 102 91 103 103 112 120 121 127 133 134 135 138 140 139 141 139 135 134 133 132 128 128 127 126 125 122 123 123 123 122 120 121 121 117 118 122 122 127 134 134 131 131 130 127 128 127 126 121 119 121 120 119 120 121 122 125 125 124 122 118 116 113 111 109 107 106 108 111 113 114 115 112
87 107 92 7 127 23 216 258 225 269 65 58 307 187 186 194 155 123 123 119 118 110 105 105 108 98 88 102 100 105 111 117 125 131 134 136 139 137 136 138 134 134 135 133 129 126 125 124 124 122 122 122 121 122 121 121 124 123 119 123 125 127 132 134 136 136 134 134 133 132 130 128 127 125 124 123 122 122 121 121 123 125 125 123 119 117 115 112 111 111 110 111 113 115 118 119 115
52 46 248 15 135 233 212 279 187 117 61 100 275 236 196 163 132 135 131 118 130 119 103 101 98 98 95 93 93 102 109 119 125 129 134 139 141 136 136 137 135 137 136 133 131 128 126 126 127 125 125 123 123 124 123 124 124 123 123 127 130 133 138 135 135 138 137 136 137 135 133 132 132 129 127 126 124 121 119 119 121 123 124 122 120 119 118 118 118 116 114 115 116 117 119 120 117
45 34 332 7 149 207 160 288 202 90 36 109 261 244 184 135 136 136 124 120 130 114 103 100 96 104 106 100 100 111 120 128 128 129 136 141 140 137 138 137 137 139 137 136 134 131 130 129 128 127 126 125 126 125 124 125 126 127 129 133 136 139 140 137 136 137 138 138 140 138 136 134 131 130 130 128 125 124 122 121 120 122 125 123 121 121 121 121 123 122 118 119 119 120 122 121 118
50 37 34 320 165 197 120 243 180 74 345 71 272 252 161 133 141 119 119 128 126 107 106 105 105 108 108 105 106 124 131 136 132 133 138 140 141 138 138 138 139 139 137 137 134 131 128 127 127 126 127 127 127 126 126 128 130 133 136 139 139 140 139 138 138 136 138 139 140 139 134 131 130 131 130 128 129 128 124 122 124 126 126 124 123 123 123 123 126 125 119 119 120 121 123 120 118
70 290 129 229 255 229 132 148 171 102 360 75 266 288 359 160 138 118 122 126 119 112 113 114 118 116 109 108 121 132 135 137 135 137 140 139 140 138 136 138 139 137 138 137 133 131 129 130 130 128 128 127 128 130 130 130 133 136 137 137 136 138 138 138 139 137 139 138 138 135 132 131 132 134 132 130 131 129 125 127 131 131 127 126 128 125 125 126 127 127 125 125 125 124 123 119 119
99 249 186 229 199 219 145 143 163 113 35 230 232 288 16 318 131 121 127 127 125 120 118 119 125 122 112 118 135 136 135 137 136 137 138 137 137 137 136 136 136 137 139 138 135 133 134 135 133 132 132 130 131 132 133 133 135 136 133 132 132 135 137 137 138 140 141 139 139 135 132 133 134 135 138 137 133 130 129 131 135 135 132 133 134 127 127 130 130 131 131 130 128 124 121 118 119
139 216 268 292 136 79 133 134 159 130 174 224 230 109 82 299 225 113 126 121 113 118 120 126 132 120 117 131 133 135 138 139 139 136 135 134 135 136 136 136 136 137 138 139 137 134 135 137 137 137 133 130 131 132 134 134 133 132 129 130 133 134 135 136 136 139 140 139 140 136 132 133 133 135 139 139 134 133 132 132 135 137 137 137 137 133 134 135 133 134 133 131 129 124 120 117 118
163 121 109 296 243 121 147 146 151 129 202 213 190 129 136 264 259 109 126 117 113 129 126 131 136 125 137 143 132 141 144 140 139 136 131 128 131 134 136 137 136 137 139 139 136 135 138 139 140 137 133 131 131 132 132 131 130 128 128 130 133 133 133 132 135 137 137 136 136 134 133 133 133 134 137 135 134 136 134 133 135 137 137 137 137 138 141 139 135 133 132 129 126 123 120 121 123
140 114 100 311 241 160 178 149 144 133 202 210 178 161 153 256 302 118 142 128 128 135 129 140 145 136 141 136 129 138 140 138 137 133 129 126 130 134 137 139 137 138 139 138 138 139 141 140 139 138 136 133 133 132 129 128 128 128 128 128 130 130 130 131 133 134 132 132 132 129 130 134 134 133 135 133 134 138 137 136 137 139 139 138 138 139 138 136 135 131 126 122 119 118 120 125 128
124 192 72 285 237 170 178 163 172 158 166 207 186 160 135 130 265 151 150 131 128 130 134 144 140 133 135 130 130 134 136 137 136 132 129 129 132 136 139 140 137 136 138 139 140 141 141 139 139 140 140 136 135 133 129 128 128 128 128 127 128 129 132 134 133 131 130 131 131 127 124 129 133 133 133 132 133 137 138 137 138 139 140 140 138 136 134 133 133 128 121 117 115 116 121 125 127
120 181 165 240 233 183 187 167 213 164 150 187 171 152 138 144 191 165 145 134 134 144 142 137 133 130 129 129 130 133 135 136 136 132 130 131 135 137 139 140 137 137 139 140 142 144 144 142 142 144 143 139 137 135 132 133 133 131 130 127 126 127 130 132 132 129 130 129 127 127 125 127 133 135 133 132 133 135 137 139 139 140 144 144 140 137 134 134 132 126 121 118 118 120 125 128 126
157 180 214 240 178 196 206 150 226 228 156 166 159 157 156 154 170 140 136 142 144 148 139 132 127 124 127 129 129 131 135 136 138 136 134 136 139 140 140 142 140 139 143 143 143 146 147 145 145 144 144 142 140 140 138 138 139 137 134 131 128 127 129 130 130 128 129 129 128 129 129 131 133 134 133 132 132 133 134 136 138 139 142 142 140 139 137 135 133 128 124 120 121 125 128 130 129
185 180 219 252 175 204 261 137 217 241 162 148 152 152 152 162 160 128 147 152 149 144 136 131 127 131 137 133 132 134 136 138 140 140 140 141 143 145 146 147 145 144 148 149 144 145 149 148 147 144 143 145 142 141 140 141 142 141 139 138 134 133 136 137 135 131 130 131 132 133 137 137 135 135 136 136 135 134 132 133 135 137 138 136 136 137 137 137 132 128 124 122 125 128 131 132 132
190 191 216 314 352 7 3 17 300 282 176 147 151 143 148 164 128 134 166 154 137 134 133 133 135 140 142 137 138 140 141 143 145 145 144 145 147 149 150 149 147 148 151 150 146 146 148 149 152 150 149 148 142 141 143 144 145 143 141 142 140 141 146 147 145 139 133 132 132 137 144 143 140 139 140 142 140 138 135 135 135 134 135 133 132 133 134 135 131 129 127 126 132 135 136 135 131
187 124 18 16 18 22 359 17 21 334 341 98 135 143 143 134 91 170 169 140 127 132 134 137 140 142 142 141 140 142 145 148 149 147 147 149 150 150 150 146 144 150 153 152 151 149 148 154 159 157 156 152 146 147 147 146 146 144 142 142 141 142 144 146 149 145 136 133 133 142 149 147 144 141 142 144 142 142 140 137 133 129 129 129 128 127 130 134 135 138 136 134 140 137 138 140 138
217 39 21 31 69 107 323 27 71 40 40 60 63 320 225 127 135 237 158 125 128 131 136 138 138 141 143 140 139 145 149 150 151 152 155 153 151 151 149 147 148 152 155 154 155 152 151 160 164 159 157 155 155 154 149 146 147 144 141 138 136 136 138 142 145 144 138 134 135 144 151 150 146 145 147 147 144 145 143 139 136 133 134 134 130 131 142 148 143 139 137 141 150 149 143 147 158
45 22 347 60 86 54 17 49 75 94 106 130 123 322 281 140 150 236 146 124 126 129 136 136 137 143 143 140 143 148 149 151 150 151 153 149 147 150 149 152 154 153 153 154 156 154 156 165 163 156 156 156 156 152 147 148 150 148 144 139 136 133 137 143 142 141 139 136 133 136 145 149 149 150 152 150 147 147 146 145 145 144 146 143 139 148 163 157 143 133 137 147 159 163 159 161 171
69 345 267 151 80 28 44 63 54 76 97 89 72 301 229 160 153 191 139 127 127 131 134 136 141 146 147 146 146 147 148 147 145 147 147 141 144 147 149 152 154 154 154 154 154 156 162 164 160 157 157 155 153 150 148 150 151 149 146 142 140 138 139 146 144 141 142 138 134 132 136 145 148 150 152 152 151 151 151 151 151 150 152 153 149 155 160 149 144 141 149 159 168 178 189 193 177
138 186 243 116 93 71 72 61 34 20 67 84 91 270 235 162 143 138 137 131 129 132 134 141 147 150 154 147 144 147 146 146 149 148 141 141 145 144 145 151 154 156 157 156 154 160 165 162 160 158 156 156 153 151 151 151 150 149 148 144 147 152 146 147 145 142 144 141 137 138 141 145 143 143 147 152 154 154 153 153 155 156 159 160 157 158 154 146 145 151 164 175 192 209 226 222 221
130 143 127 81 79 78 67 71 7 327 83 136 177 259 286 176 141 127 144 134 132 136 138 147 151 154 155 142 142 150 153 156 152 143 138 146 149 143 145 151 154 154 158 157 154 160 162 158 159 157 156 157 155 152 149 148 148 150 149 146 152 159 154 151 148 145 146 144 140 141 147 150 144 143 148 154 155 152 152 156 160 167 171 167 161 156 148 147 145 145 169 193 220 247 265 242 237
132 133 101 64 67 72 47 77 304 315 108 281 282 37 328 302 140 141 143 136 136 140 143 151 154 155 149 142 152 163 162 154 145 142 142 146 148 145 147 153 153 153 159 158 153 157 158 155 158 158 158 156 155 155 147 145 148 149 149 151 155 155 156 154 148 147 149 150 146 143 147 152 150 150 151 156 160 156 153 159 168 174 175 170 162 147 135 143 153 152 170 201 241 262 273 232 224
141 140 105 63 60 68 20 60 308 309 37 338 347 59 352 327 210 149 139 138 140 141 148 153 154 153 146 149 164 164 145 137 138 141 137 142 153 151 148 153 152 152 159 158 154 155 154 158 161 159 157 152 154 159 153 153 151 148 154 158 155 151 155 155 147 142 142 148 151 148 151 152 149 150 150 156 167 167 156 152 163 165 164 162 150 136 134 141 161 175 182 219 291 310 305 262 237
133 90 100 88 69 34 354 19 336 319 23 2 1 117 245 280 251 158 142 145 143 145 156 154 153 151 146 156 158 138 131 132 139 138 139 152 159 150 147 149 148 149 155 156 156 156 153 159 164 160 158 152 157 161 155 157 151 150 160 158 150 148 150 151 146 137 131 138 146 147 148 145 144 147 151 154 162 167 157 145 153 157 156 152 139 135 144 143 150 155 149 337 350 336 326 292 252
141 84 63 86 110 102 332 335 336 14 48 6 10 126 210 256 255 167 147 153 148 151 159 153 154 149 147 159 143 133 137 138 138 137 148 158 153 148 145 142 143 148 152 154 157 158 155 157 162 161 159 156 162 160 155 158 156 156 159 150 147 144 139 142 142 136 131 133 135 137 136 139 142 143 150 153 154 158 153 148 151 153 153 146 137 139 140 129 126 119 69 24 354 322 320 302 274
254 125 42 329 130 145 272 259 260 90 86 19 15 112 237 235 234 184 151 157 153 155 158 151 149 146 151 156 138 138 144 142 138 144 157 154 147 147 141 139 144 148 149 151 154 155 156 157 158 159 158 159 162 158 155 159 160 163 158 145 145 139 135 138 137 138 139 138 134 132 133 138 139 135 145 150 151 155 154 152 150 147 146 141 136 133 128 122 113 98 70 24 342 295 322 354 140
283 169 150 206 156 150 192 199 186 120 107 73 49 47 272 226 209 204 161 160 157 156 154 147 145 146 156 149 137 145 151 147 142 155 165 150 146 143 136 141 147 147 148 152 153 153 155 157 157 159 160 160 160 158 158 156 159 166 163 150 143 138 139 138 137 144 148 148 142 134 137 143 137 134 146 147 146 155 158 152 145 141 140 138 132 120 112 111 91 69 57 19 341 299 360 102 162
267 221 131 145 172 154 154 137 162 159 136 117 93 138 273 269 215 197 168 165 159 157 151 146 146 150 160 145 141 157 160 153 145 161 165 148 146 141 137 146 149 145 148 151 152 151 151 155 156 159 161 160 160 160 159 155 156 161 162 156 148 142 143 141 145 152 151 152 149 142 148 153 144 140 150 150 145 149 151 143 135 133 129 123 117 101 92 97 77 59 86 111 124 163 202 203 188
158 217 149 133 177 169 164 144 160 159 143 140 130 172 266 275 245 183 171 177 152 153 151 145 150 152 160 147 147 168 161 151 152 162 159 144 141 138 139 146 143 144 147 147 150 150 149 152 154 156 157 159 159 158 155 154 156 159 159 160 162 160 153 155 164 161 152 156 154 148 152 158 154 141 140 144 142 142 137 126 122 119 115 110 104 93 100 121 127 142 158 141 154 212 227 218 211
159 217 181 145 155 164 160 125 145 155 146 160 153 164 231 261 284 152 167 215 154 150 146 143 152 154 165 153 151 173 159 148 157 157 149 138 135 135 141 144 141 145 145 143 147 151 150 150 152 154 156 158 156 155 155 157 160 159 158 159 166 170 165 166 169 164 161 162 154 148 151 163 162 143 136 136 136 137 130 124 127 125 126 129 130 132 133 140 135 128 137 129 194 228 238 235 239
161 181 171 144 136 143 157 138 144 148 135 150 120 108 215 261 315 325 318 290 189 151 142 151 154 156 175 156 152 175 156 146 155 152 143 135 133 137 145 144 138 138 139 141 144 149 152 150 151 154 158 160 158 158 160 162 163 161 161 160 163 167 167 168 165 163 167 161 151 147 150 163 168 151 142 140 136 133 136 147 155 150 146 149 146 135 132 132 113 86 43 13 349 328 325 313 251
172 161 149 141 138 150 143 130 131 127 120 110 95 104 166 321 296 300 334 350 304 125 140 166 156 158 184 155 154 174 148 145 153 146 142 138 137 143 148 141 136 133 137 144 144 147 153 153 153 156 159 164 163 162 163 165 165 162 162 162 162 162 164 167 163 161 164 158 153 153 151 155 160 157 150 154 163 157 158 164 164 155 142 141 139 128 126 122 100 57 22 18 3 339 335 359 80
183 145 147 147 139 123 87 104 124 126 136 131 136 139 116 32 304 305 332 1 312 343 43 248 181 168 184 154 155 167 144 149 156 144 144 145 143 143 145 141 139 138 141 146 148 150 153 155 156 158 162 166 165 163 166 168 166 164 162 163 163 160 159 163 160 159 162 156 154 158 158 156 157 162 159 160 168 168 168 168 166 164 146 137 141 135 128 122 104 54 36 21 13 3 359 38 91
176 151 167 153 153 151 117 149 142 111 90 123 135 125 100 123 312 307 305 314 295 326 341 311 286 199 186 160 156 159 151 155 158 150 147 148 142 138 142 143 142 144 144 148 152 154 155 158 160 161 164 168 168 169 171 168 166 165 164 163 166 164 160 159 156 158 160 154 155 161 163 162 161 166 168 163 164 165 169 171 171 172 160 148 147 142 134 128 113 64 51 28 21 23 22 48 113
175 174 167 151 163 157 115 143 141 97 65 107 116 104 127 176 219 260 279 314 301 328 330 306 296 266 194 161 154 154 157 160 159 157 151 149 144 140 145 148 149 152 149 150 155 157 161 165 163 163 167 170 173 173 170 170 171 171 167 164 166 162 156 156 155 156 157 155 160 164 162 162 159 163 170 168 164 162 166 171 171 171 166 157 154 153 145 131 113 75 59 40 33 31 24 37 91
184 165 137 145 152 124 113 133 136 104 102 175 134 129 208 177 196 241 251 278 277 348 316 286 289 292 218 161 159 159 160 161 162 160 152 151 148 146 149 153 157 159 155 155 159 161 165 166 165 167 170 173 174 170 170 174 174 171 168 164 161 154 148 156 157 155 159 159 161 164 164 163 158 162 174 174 168 164 163 170 168 165 163 158 158 156 145 138 128 94 69 57 52 43 30 35 48
216 140 134 138 131 122 136 150 148 117 140 188 160 134 154 176 204 234 216 232 252 222 252 266 268 283 242 176 166 163 161 161 164 161 154 154 151 148 151 157 164 163 159 161 164 164 165 165 168 170 169 170 171 171 175 176 169 167 165 162 164 159 152 159 162 160 163 163 162 165 166 166 164 168 178 176 169 167 166 166 161 159 159 156 159 154 141 140 131 95 81 87 64 52 42 35 38
138 146 135 132 132 136 150 155 133 113 117 122 148 125 122 177 201 211 204 209 233 223 233 252 251 261 246 198 171 166 164 165 167 161 156 155 154 152 154 161 168 164 161 166 166 164 166 167 170 171 165 167 171 174 177 175 169 168 163 160 165 166 160 162 166 168 168 164 165 168 165 167 171 171 179 180 169 167 168 164 161 159 158 156 152 143 139 139 129 105 99 105 79 60 45 31 39
156 152 138 135 141 143 151 145 117 138 125 123 178 170 124 168 179 173 186 203 221 220 220 231 234 237 243 209 176 173 167 169 171 161 159 156 156 160 160 164 167 164 165 169 164 162 166 169 172 172 168 170 174 175 176 175 172 169 165 163 164 168 169 166 168 173 172 166 167 170 167 170 174 172 180 184 171 166 168 166 164 160 161 162 148 138 153 151 137 119 106 109 93 72 54 39 46
182 150 136 134 138 139 147 138 124 149 158 175 186 187 147 140 168 160 173 206 217 215 213 221 222 222 238 222 182 177 171 174 173 161 160 156 157 163 164 166 166 164 171 171 162 163 166 168 170 172 173 175 177 176 175 175 175 171 170 172 170 173 176 172 170 174 175 173 173 175 175 175 177 173 177 183 175 169 168 169 166 158 163 168 155 154 170 164 151 125 107 116 107 83 72 64 59
245 141 128 116 116 124 131 133 125 127 220 206 180 187 190 145 173 181 186 201 201 200 200 209 216 217 229 229 191 176 171 179 174 165 160 155 159 162 164 171 167 163 171 169 161 164 167 169 172 171 174 178 179 177 176 176 176 176 177 178 178 177 176 172 169 173 177 181 182 180 178 178 179 177 178 180 179 178 175 173 170 163 169 172 163 166 170 166 165 147 130 130 117 101 92 87 84
280 151 129 95 71 31 62 135 183 120 270 202 167 177 196 191 192 200 208 207 182 189 195 194 200 210 219 223 201 175 169 179 176 167 160 155 160 161 165 174 168 163 168 162 160 166 168 171 173 172 174 179 179 178 178 178 177 179 182 180 179 179 177 175 174 176 177 179 181 180 179 181 183 184 185 184 183 186 184 180 178 172 173 174 169 177 179 176 178 166 163 161 135 122 110 111 104
263 156 135 116 127 208 100 194 225 150 31 77 146 161 197 243 220 199 210 213 181 184 196 193 192 199 208 212 203 181 171 176 175 170 164 161 162 163 169 173 164 163 166 160 161 167 169 172 175 173 175 178 180 179 179 181 181 182 183 180 178 179 181 182 180 179 178 176 179 181 182 187 191 189 190 191 188 188 187 185 189 188 180 175 173 180 180 176 183 180 170 159 149 135 130 141 107
243 181 145 136 143 170 186 190 178 127 55 43 86 100 331 276 252 190 208 211 192 179 187 192 192 196 201 205 201 190 176 170 170 176 174 168 164 164 171 169 160 163 168 165 167 170 170 173 176 177 177 178 180 180 179 181 183 184 185 182 180 177 180 184 182 180 181 180 183 186 185 189 194 192 192 194 190 191 193 188 191 194 185 180 184 185 178 171 176 178 171 161 158 156 166 177 142
237 206 138 128 145 156 194 179 123 114 104 58 81 104 257 258 244 240 226 208 190 177 177 181 193 204 200 202 206 195 182 170 169 178 174 166 165 165 169 165 159 165 170 168 170 171 171 174 177 179 179 179 180 181 182 182 182 185 186 184 184 181 179 180 180 182 184 183 187 191 187 189 197 196 195 195 190 194 198 191 191 194 185 182 188 186 179 179 178 175 175 176 173 175 180 178 181
262 154 108 128 176 154 195 174 149 132 127 117 125 171 227 230 261 272 230 179 177 171 170 174 186 209 203 199 209 200 185 176 171 174 169 164 167 166 166 164 160 164 169 171 173 173 173 175 178 181 181 182 182 182 183 183 183 187 187 184 185 185 183 180 179 184 187 186 189 194 193 195 200 198 197 195 194 200 200 191 189 190 188 189 194 190 182 183 186 177 178 185 177 177 176 173 190
315 83 151 206 204 207 239 184 152 124 117 134 171 192 225 207 282 296 146 153 169 166 167 174 182 202 207 198 205 205 191 180 172 171 168 166 168 167 166 165 163 164 168 173 174 174 176 176 178 182 183 183 184 183 183 184 185 188 188 187 185 184 183 182 181 185 188 187 189 194 195 199 200 196 198 196 196 204 200 191 189 191 196 202 201 196 186 187 197 185 181 188 181 182 188 184 199
223 268 233 215 204 226 232 121 135 120 124 217 207 172 164 187 226 243 167 164 170 169 172 176 181 194 207 203 200 205 197 180 172 168 166 166 164 164 166 167 168 170 171 174 174 174 177 178 179 183 184 184 186 185 184 185 187 188 189 189 186 185 184 183 184 187 189 188 189 192 193 198 200 195 197 196 192 196 193 189 192 195 201 208 203 195 187 190 204 193 189 197 189 192 205 198 206
212 245 290 28 170 228 221 123 182 149 138 167 248 171 174 213 192 175 189 186 175 175 177 178 185 193 202 205 202 203 203 184 174 164 162 168 164 163 167 167 171 177 177 174 174 175 176 178 181 183 185 186 187 187 185 187 188 187 188 188 187 188 187 186 189 191 191 190 189 192 191 193 198 195 194 195 192 191 188 188 196 201 202 202 199 196 188 192 209 199 192 209 204 199 212 212 213
250 278 298 283 155 193 190 182 180 146 149 152 176 216 229 231 197 179 188 189 177 176 178 182 189 193 195 200 202 201 196 185 178 165 162 171 168 167 171 171 172 178 178 173 174 176 176 178 180 182 185 186 187 188 187 188 190 188 187 188 188 190 190 189 190 192 191 189 187 192 194 191 195 197 195 196 196 195 192 193 199 203 202 197 199 206 196 193 213 207 191 211 225 215 223 229 223
226 232 271 261 243 198 196 222 194 157 155 149 150 200 256 257 199 181 181 180 177 174 175 182 186 189 192 194 199 198 185 183 181 168 164 172 173 172 173 175 176 177 175 173 174 177 177 178 180 182 184 186 187 189 188 189 191 189 188 190 190 191 192 193 194 194 191 190 190 193 195 194 195 196 194 193 192 194 197 199 201 200 198 198 201 208 205 200 211 211 197 209 226 214 218 232 238
186 163 213 239 249 238 209 285 253 174 148 170 150 150 277 313 354 190 159 159 168 168 171 179 179 184 191 194 198 194 182 191 189 172 165 169 174 176 175 175 178 178 173 172 175 176 176 179 181 182 185 187 188 189 189 188 188 189 190 192 192 192 194 197 198 195 192 193 195 196 196 193 192 193 195 193 191 195 200 201 200 197 198 206 204 199 207 210 212 214 208 213 220 210 211 222 230